This demonstration page uses our WeatherBlox Daily Observations layout. Learn more.

Left ArrowRight Arrow

39.51506, -84.39828

Hourly Observations for May 13, 2020

Temp ( °F °C ) Dew Point ( °F °C ) Humidity (%) Winds ( mph kmh ) Pressure ( in mb ) Visibility ( mi km ) Precip ( " mm )
12:15 am 00:15 undefined 39 4.1 36 2.2 88 88 Calm 30.28 1026 N/A 0 0
12:35 am 00:35 undefined 39 4 36 2.1 88 88 Calm 30.28 1026 N/A 0 0
12:55 am 00:55 undefined 38 3.5 35 1.9 89 89 Calm 30.3 1026 N/A 0 0
1:15 am 01:15 undefined 38 3.3 36 2.1 92 92 Calm 30.3 1026 N/A 0 0
1:35 am 01:35 undefined 37 2.8 35 1.8 93 93 Calm 30.3 1026 N/A 0 0
1:55 am 01:55 undefined 36 2.3 35 1.4 94 94 Calm 30.3 1026 N/A 0 0
2:15 am 02:15 undefined 37 2.6 35 1.7 94 94 Calm 30.3 1026 N/A 0 0
2:35 am 02:35 undefined 35 1.9 34 1.1 95 95 NNE 3 6 30.3 1026 N/A 0 0
2:55 am 02:55 undefined 36 2.1 35 1.4 95 95 Calm 30.3 1026 N/A 0 0
3:15 am 03:15 undefined 35 1.8 34 1.3 97 97 Calm 30.3 1026 N/A 0 0
3:35 am 03:35 undefined 35 1.8 34 1.3 97 97 Calm 30.3 1026 N/A 0 0
3:55 am 03:55 undefined 36 2 35 1.5 97 97 Calm 30.3 1026 N/A 0 0
4:15 am 04:15 undefined 35 1.6 34 1.1 97 97 Calm 30.3 1026 N/A 0 0
4:35 am 04:35 undefined 35 1.7 34 1.2 97 97 NE 3 6 30.31 1026 N/A 0 0
4:55 am 04:55 undefined 35 1.7 35 1.4 98 98 ENE 5 7 30.32 1027 N/A 0 0
5:15 am 05:15 undefined 37 2.5 36 2.2 98 98 Calm 30.32 1027 N/A 0 0
5:35 am 05:35 Mostly Cloudy 37 2.9 36 2.2 95 95 Calm 30.32 1027 N/A 0 0
5:55 am 05:55 Mostly Cloudy 37 2.8 36 2.1 95 95 NNE 3 6 30.32 1027 N/A 0 0
6:15 am 06:15 Cloudy 38 3.1 36 2.4 95 95 Calm 30.32 1027 N/A 0 0
6:35 am 06:35 Cloudy 38 3.6 37 2.8 95 95 Calm 30.33 1027 N/A 0 0
6:55 am 06:55 Cloudy 39 4.1 38 3.1 93 93 Calm 30.33 1027 N/A 0 0
7:15 am 07:15 Cloudy 41 4.9 38 3.6 91 91 ENE 3 6 30.33 1027 N/A 0 0
7:35 am 07:35 Cloudy 42 5.5 39 3.9 90 90 Calm 30.33 1027 N/A 0 0
7:55 am 07:55 Cloudy 43 6 40 4.2 88 88 Calm 30.34 1027 N/A 0 0
8:15 am 08:15 undefined 44 6.9 40 4.5 85 85 Calm 30.35 1028 N/A 0 0
8:35 am 08:35 Cloudy 46 7.6 41 4.9 83 83 NE 3 6 30.35 1028 N/A 0 0
8:55 am 08:55 Cloudy 47 8.5 42 5.3 81 81 NE 3 6 30.35 1028 N/A 0 0
9:15 am 09:15 Cloudy 48 9.1 41 4.9 75 75 Calm 30.35 1028 N/A 0 0
9:35 am 09:35 Cloudy 50 9.8 41 4.9 72 72 Calm 30.35 1028 N/A 0 0
9:55 am 09:55 Cloudy 51 10.8 41 5.2 69 69 Calm 30.35 1028 N/A 0 0
10:15 am 10:15 Mostly Cloudy 53 11.9 42 5.4 65 65 Calm 30.34 1028 N/A 0 0
10:35 am 10:35 Cloudy 56 13.3 40 4.2 54 54 S 5 7 30.33 1027 N/A 0 0
10:55 am 10:55 Cloudy 58 14.2 41 4.9 54 54 S 5 7 30.34 1027 N/A 0 0
11:15 am 11:15 Partly Cloudy 60 15.5 40 4.4 48 48 SSE 7 11 30.33 1027 N/A 0 0
11:35 am 11:35 Sunny 61 15.9 38 3.5 44 44 SSE 10 17 30.31 1027 N/A 0 0
11:55 am 11:55 Partly Cloudy 61 16.2 38 3.3 42 42 SE 12 19 30.3 1026 N/A 0 0
12:15 pm 12:15 Cloudy 63 17 39 4.1 43 43 SSE 12 19 30.3 1026 N/A 0 0
12:35 pm 12:35 Mostly Cloudy 63 17 39 3.7 41 41 S 13 20 30.29 1026 N/A 0 0
12:55 pm 12:55 Mostly Cloudy 63 17.3 39 4 41 41 SSE 9 15 30.29 1026 N/A 0 0
1:15 pm 13:15 Cloudy 62 16.7 39 3.8 42 42 S 12 19 30.28 1025 N/A 0 0
1:35 pm 13:35 Cloudy 62 16.4 40 4.6 46 46 SSW 13 20 30.28 1026 N/A 0 0
1:55 pm 13:55 Cloudy 60 15.8 39 4 46 46 SSW 14 22 30.27 1025 N/A 0 0
2:15 pm 14:15 Cloudy 61 15.9 38 3.6 44 44 SSW 12 19 30.27 1025 N/A 0 0
2:35 pm 14:35 Cloudy 61 15.9 38 3.4 43 43 SSW 15 24 30.27 1025 N/A 0 0
2:55 pm 14:55 Cloudy 60 15.8 38 3.1 43 43 S 12 19 30.26 1025 N/A 0 0
3:15 pm 15:15 Cloudy 60 15.6 37 2.5 42 42 S 13 20 30.27 1025 N/A 0 0
3:35 pm 15:35 Cloudy 61 16.1 37 2.9 41 41 S 13 20 30.25 1025 N/A 0 0
3:55 pm 15:55 Cloudy 61 16.2 38 3.4 43 43 S 10 17 30.24 1024 N/A 0 0
4:15 pm 16:15 Cloudy 61 16 38 3.2 43 43 S 10 17 30.24 1024 N/A 0 0
4:35 pm 16:35 Cloudy 60 15.5 37 2.5 42 42 S 12 19 30.24 1024 N/A 0 0
4:55 pm 16:55 Cloudy 59 15.2 35 1.7 40 40 SSE 13 20 30.24 1024 N/A 0 0
5:15 pm 17:15 Cloudy 59 15.2 37 2.8 44 44 SSE 8 13 30.24 1024 N/A 0 0
5:35 pm 17:35 Cloudy 59 15 37 2.6 44 44 SSE 9 15 30.24 1024 N/A 0 0
5:55 pm 17:55 Cloudy 59 14.8 37 2.9 45 45 S 9 15 30.23 1024 N/A 0 0
6:15 pm 18:15 Cloudy 59 15 38 3.6 47 47 SSE 9 15 30.22 1023 N/A 0 0
6:35 pm 18:35 Cloudy 59 15.2 39 3.9 47 47 S 9 15 30.22 1023 N/A 0 0
6:55 pm 18:55 Cloudy 59 15.1 39 4.1 48 48 S 8 13 30.22 1023 N/A 0 0
7:15 pm 19:15 Cloudy 59 15 40 4.5 50 50 SSE 12 19 30.21 1023 N/A 0 0
7:35 pm 19:35 Cloudy 59 14.9 40 4.3 49 49 S 9 15 30.21 1023 N/A 0 0
7:55 pm 19:55 Cloudy 59 14.8 40 4.3 50 50 S 8 13 30.21 1023 N/A 0 0
8:15 pm 20:15 Cloudy 58 14.6 40 4.4 51 51 S 7 11 30.21 1023 N/A 0 0
8:35 pm 20:35 Cloudy 58 14.4 41 4.8 53 53 S 8 13 30.21 1023 N/A 0 0
8:55 pm 20:55 Cloudy 58 14.4 41 4.8 53 53 S 8 13 30.21 1023 N/A 0 0
9:15 pm 21:15 Cloudy 58 14.3 41 5 54 54 S 7 11 30.21 1023 N/A 0 0
9:35 pm 21:35 Cloudy 58 14.2 42 5.4 56 56 SSE 7 11 30.2 1023 N/A 0 0
9:55 pm 21:55 Cloudy 58 14.3 43 6.1 58 58 S 10 17 30.2 1023 N/A 0 0
10:15 pm 22:15 Cloudy 57 14.1 44 6.5 60 60 S 8 13 30.21 1023 N/A 0 0
10:35 pm 22:35 Cloudy 57 14 45 7.2 64 64 S 9 15 30.2 1023 N/A 0 0
10:55 pm 22:55 Cloudy 57 14 46 7.5 65 65 S 10 17 30.2 1023 N/A 0 0
11:15 pm 23:15 Cloudy 57 13.8 47 8.2 69 69 S 13 20 30.2 1023 N/A 0 0
11:35 pm 23:35 Cloudy 56 13.6 48 8.8 73 73 S 9 15 30.19 1022 N/A 0 0
11:55 pm 23:55 Cloudy 56 13.4 48 8.9 74 74 S 7 11 30.19 1022 N/A 0 0

Powered by AerisWeather